Voltar ao catálogo

SCOUT A DEB

AtivoPO
NORAD 2778·DEBRIS·🇺🇸 United States

Lançado Apr 14, 1967 de Vandenberg Space Force Base

Loading…

Próximas Passagens (próximas 24 horas)

TLE

AtualizadoSource: Space-Track

Época: Sep 13, 2026, 14:48 UTC

1 02778U 67034D   26256.61704220  .00000104  00000-0  17667-3 0  9992
2 02778  89.8573  36.2403 0124747 106.2480  13.8683 13.35311682884956

Acompanhe SCOUT A DEB em tempo real com AllMySat

Download on the App Store